TimeEDT,TemperatureF,Dew PointF,Humidity,Sea Level PressureIn,VisibilityMPH,Wind Direction,Wind SpeedMPH,Gust SpeedMPH,PrecipitationIn,Events,Conditions,WindDirDegrees,DateUTC
12:54 AM,66.9,57.0,70,30.28,10.0,SW,8.1,-,N/A,,Mostly Cloudy,230,2013-08-26 04:54:00
1:54 AM,66.9,59.0,76,30.26,10.0,SSW,9.2,-,N/A,,Mostly Cloudy,210,2013-08-26 05:54:00
2:54 AM,66.0,59.0,78,30.27,10.0,SSW,5.8,-,N/A,,Mostly Cloudy,210,2013-08-26 06:54:00
3:54 AM,66.0,59.0,78,30.24,10.0,South,8.1,-,N/A,,Scattered Clouds,190,2013-08-26 07:54:00
4:54 AM,66.0,57.9,75,30.23,10.0,SW,10.4,-,N/A,,Mostly Cloudy,230,2013-08-26 08:54:00
5:54 AM,66.0,59.0,78,30.23,10.0,SW,8.1,-,N/A,,Mostly Cloudy,230,2013-08-26 09:54:00
6:54 AM,66.0,59.0,78,30.23,10.0,SW,10.4,-,N/A,,Mostly Cloudy,230,2013-08-26 10:54:00
7:54 AM,66.9,59.0,76,30.23,10.0,SW,11.5,-,N/A,,Mostly Cloudy,230,2013-08-26 11:54:00
8:54 AM,69.1,60.1,73,30.23,10.0,SW,9.2,-,N/A,,Mostly Cloudy,230,2013-08-26 12:54:00
9:54 AM,71.1,60.1,68,30.21,10.0,SW,12.7,-,N/A,,Mostly Cloudy,230,2013-08-26 13:54:00
10:54 AM,73.9,60.1,62,30.20,10.0,WSW,10.4,-,N/A,,Scattered Clouds,250,2013-08-26 14:54:00
11:54 AM,78.1,61.0,56,30.16,10.0,SW,10.4,-,N/A,,Partly Cloudy,220,2013-08-26 15:54:00
12:54 PM,81.0,62.1,52,30.15,10.0,WSW,11.5,-,N/A,,Scattered Clouds,240,2013-08-26 16:54:00
1:54 PM,84.0,62.1,47,30.11,10.0,SW,11.5,-,N/A,,Scattered Clouds,220,2013-08-26 17:54:00
2:54 PM,84.9,62.1,46,30.07,10.0,SW,12.7,-,N/A,,Mostly Cloudy,230,2013-08-26 18:54:00
3:54 PM,84.9,62.1,46,30.03,10.0,SW,16.1,-,N/A,,Mostly Cloudy,230,2013-08-26 19:54:00
4:54 PM,84.0,63.0,49,30.01,10.0,SW,12.7,-,N/A,,Mostly Cloudy,220,2013-08-26 20:54:00
5:54 PM,84.0,63.0,49,30.01,10.0,SW,12.7,-,N/A,,Mostly Cloudy,230,2013-08-26 21:54:00
6:54 PM,82.0,63.0,52,30.00,10.0,SW,11.5,-,N/A,,Mostly Cloudy,220,2013-08-26 22:54:00
7:54 PM,81.0,64.0,56,30.01,10.0,SW,9.2,-,N/A,,Mostly Cloudy,220,2013-08-26 23:54:00
8:54 PM,79.0,64.9,62,30.01,10.0,SSW,9.2,-,N/A,,Mostly Cloudy,210,2013-08-27 00:54:00
9:54 PM,78.1,64.0,62,30.00,10.0,SW,13.8,-,N/A,,Mostly Cloudy,220,2013-08-27 01:54:00
10:54 PM,77.0,64.9,66,29.99,10.0,SW,12.7,-,N/A,,Mostly Cloudy,230,2013-08-27 02:54:00
11:54 PM,75.9,64.9,69,29.97,10.0,SW,12.7,-,N/A,,Overcast,230,2013-08-27 03:54:00